Martinsburg, WV

12:24 PM EDT on March 26, 2017 (GMT -0400)
Eastern W Va Regional-Shepherd

Weather History for KMRB - August, 2014

Change the Weather History Date:

Thursday, August 28, 2014

  Actual Average Record
Temperature  
Mean Temperature 72 °F 71 °F  
Max Temperature 84 °F 83 °F 99 °F (1948)
Min Temperature 60 °F 60 °F 45 °F (1968)
Degree Days  
Heating Degree Days 0 0  
Month to date heating degree days 0 0  
Since 1 June heating degree days 5 25  
Since 1 July heating degree days 3 1  
Cooling Degree Days 7 7  
Month to date cooling degree days 188 230  
Year to date cooling degree days 806 773  
Since 1 June cooling degree days 725 716  
Growing Degree Days 24 (Base 50)    
Moisture  
Dew Point 54 °F    
Average Humidity 51    
Maximum Humidity 73    
Minimum Humidity 28    
Precipitation  
Precipitation 0.00 in 0.10 in 1.29 in (2008)
Month to date precipitation 2.23 2.79  
Year to date precipitation 24.47 25.95  
Sea Level Pressure  
Sea Level Pressure 30.01 in    
Wind  
Wind Speed 8 mph (NNW)    
Max Wind Speed 17 mph    
Max Gust Speed 29 mph    
Visibility 10 miles    
Events      
T = Trace of Precipitation, MM = Missing Value Source: NWS Daily Summary

Daily Weather History Graph

Daily Weather History Graph

Search for Another Location

Airport or City:

Trip Planner

Search our weather history database for the weather conditions in past years. The results will help you decide how hot, cold, wet, or windy it might be!

Date:

Astronomy

Aug. 28, 2014 Rise Set
Actual Time 6:36 AM EDT 7:48 PM EDT
Civil Twilight 6:08 AM EDT 8:16 PM EDT
Nautical Twilight 5:35 AM EDT 8:49 PM EDT
Astronomical Twilight 5:00 AM EDT 9:24 PM EDT
Moon 9:26 AM EDT (8/28) 9:13 PM EDT (8/28)
Length of Visible Light 14h 07m
Length of Day
13h 12m
Waxing Crescent, 8% of the Moon is Illuminated
Aug 28
Waxing Crescent
Sep 2
First Quarter
Sep 8
Full
Sep 15
Last Quarter
Sep 24
New

Hourly Weather History & Observations

Time (EDT) Temp. Heat Index Dew Point Humidity Pressure Visibility Wind Dir Wind Speed Gust Speed Precip Events Conditions
12:53 AM 79.0 °F - 66.0 °F 64% 29.95 in 10.0 mi NNW 6.9 mph - N/A   Clear
1:53 AM 78.1 °F - 66.0 °F 66% 29.94 in 10.0 mi North 8.1 mph - N/A   Partly Cloudy
2:53 AM 75.9 °F - 64.9 °F 69% 29.94 in 10.0 mi North 4.6 mph - N/A   Clear
3:53 AM 75.0 °F - 63.0 °F 66% 29.94 in 10.0 mi NW 11.5 mph - N/A   Clear
4:53 AM 72.0 °F - 62.1 °F 71% 29.96 in 10.0 mi NNW 6.9 mph - N/A   Clear
5:53 AM 70.0 °F - 57.9 °F 65% 29.98 in 10.0 mi North 6.9 mph - N/A   Clear
6:53 AM 69.1 °F - 57.9 °F 68% 29.99 in 10.0 mi NNW 6.9 mph - N/A   Clear
7:53 AM 70.0 °F - 57.9 °F 65% 30.02 in 10.0 mi NNW 6.9 mph - N/A   Clear
8:53 AM 72.0 °F - 57.0 °F 59% 30.03 in 10.0 mi NW 11.5 mph - N/A   Clear
9:53 AM 73.9 °F - 57.0 °F 55% 30.04 in 10.0 mi North 9.2 mph - N/A   Partly Cloudy
10:53 AM 75.9 °F - 55.9 °F 50% 30.04 in 10.0 mi North 8.1 mph - N/A   Scattered Clouds
11:53 AM 78.1 °F - 55.9 °F 46% 30.02 in 10.0 mi NNW 11.5 mph 18.4 mph N/A   Partly Cloudy
12:53 PM 79.0 °F - 54.0 °F 42% 30.01 in 10.0 mi NNW 11.5 mph - N/A   Clear
1:53 PM 82.0 °F 81.2 °F 53.1 °F 37% 29.99 in 10.0 mi NNW 10.4 mph - N/A   Clear
2:53 PM 82.9 °F - 48.0 °F 29% 29.99 in 10.0 mi NW 16.1 mph - N/A   Clear
3:53 PM 82.9 °F - 48.0 °F 29% 29.98 in 10.0 mi North 10.4 mph 20.7 mph N/A   Clear
4:53 PM 82.9 °F - 46.0 °F 27% 29.99 in 10.0 mi NNW 12.7 mph 21.9 mph N/A   Clear
5:53 PM 82.0 °F - 46.0 °F 28% 30.00 in 10.0 mi NNW 12.7 mph - N/A   Clear
6:53 PM 79.0 °F - 45.0 °F 30% 30.01 in 10.0 mi North 12.7 mph - N/A   Clear
7:53 PM 75.0 °F - 46.0 °F 36% 30.03 in 10.0 mi North 6.9 mph - N/A   Clear
8:53 PM 71.1 °F - 46.9 °F 42% 30.06 in 10.0 mi NNW 5.8 mph - N/A   Clear
9:53 PM 69.1 °F - 48.0 °F 47% 30.10 in 10.0 mi NW 3.5 mph - N/A   Clear
10:53 PM 66.9 °F - 48.9 °F 52% 30.11 in 10.0 mi NNW 3.5 mph - N/A   Clear
11:53 PM 64.9 °F - 48.9 °F 56% 30.12 in 10.0 mi Calm Calm - N/A   Clear